Location: Newark
(12.4436°N, 0.6167°W)
Time: 17:42:41
(UTC+00:00)

Vanguard 2 - Pass Details

Date: 12 December 2019
Orbit: 553 x 2938 km, 32.9° (Epoch: 19 January)

Event Time Altitude Azimuth Distance (km) Brightness Sun altitude
Rises 08:43:58 0° 298° (WNW) 6,506 11.7 31.1°
Reaches altitude 10° 08:48:47 10° 295° (WNW) 5,246 11.3 32.0°
Maximum altitude 09:02:51 59° 220° (SW) 2,045 10.2 34.7°
Drops below altitude 10° 09:11:22 10° 142° (SE) 3,291 12.1 36.3°
Sets 09:13:44 0° 138° (SE) 4,004 12.2 36.7°
